Time,TemperatureF,DewpointF,PressureIn,WindDirection,WindDirectionDegrees,WindSpeedMPH,WindSpeedGustMPH,Humidity,HourlyPrecipIn,Conditions,Clouds,dailyrainin,SolarRadiationWatts/m^2,SoftwareType,DateUTC
2013-03-23 00:03:00,75.0,67.0,-100.00,North,6,0.0,3.0,75,0.01,,,0.12,1.000000,,2013-03-23 10:03:00,
2013-03-23 00:12:00,75.0,67.0,-100.00,North,6,0.0,3.0,75,0.01,,,0.12,1.000000,,2013-03-23 10:12:00,
2013-03-23 00:23:00,75.0,67.0,-100.00,North,6,0.0,3.0,75,0.01,,,0.12,1.000000,,2013-03-23 10:23:00,
2013-03-23 00:33:00,75.0,67.0,-100.00,North,6,0.0,3.0,75,0.01,,,0.12,1.000000,,2013-03-23 10:33:00,
2013-03-23 01:03:00,74.0,66.0,-100.00,NW,315,2.0,4.0,76,0.02,,,0.14,1.000000,,2013-03-23 11:03:00,
2013-03-23 01:12:00,74.0,66.0,-100.00,NW,315,2.0,4.0,76,0.02,,,0.14,1.000000,,2013-03-23 11:12:00,
2013-03-23 01:22:00,74.0,66.0,-100.00,NW,315,2.0,4.0,76,0.02,,,0.14,1.000000,,2013-03-23 11:22:00,
2013-03-23 01:32:00,74.0,66.0,-100.00,NW,315,2.0,4.0,76,0.02,,,0.14,1.000000,,2013-03-23 11:32:00,
2013-03-23 02:02:00,74.0,66.0,-100.00,NW,311,1.0,5.0,76,0.01,,,0.15,1.000000,,2013-03-23 12:02:00,
2013-03-23 02:12:00,74.0,66.0,-100.00,NW,311,1.0,5.0,76,0.01,,,0.15,1.000000,,2013-03-23 12:12:00,
2013-03-23 02:22:00,74.0,66.0,-100.00,NW,311,1.0,5.0,76,0.01,,,0.15,1.000000,,2013-03-23 12:22:00,
2013-03-23 02:32:00,74.0,66.0,-100.00,NW,311,1.0,5.0,76,0.01,,,0.15,1.000000,,2013-03-23 12:32:00,
2013-03-23 03:02:00,74.0,66.0,-100.00,North,351,2.0,5.0,75,0.00,,,0.15,1.000000,,2013-03-23 13:02:00,
2013-03-23 03:12:00,74.0,66.0,-100.00,North,351,2.0,5.0,75,0.00,,,0.15,1.000000,,2013-03-23 13:12:00,
2013-03-23 03:22:00,74.0,66.0,-100.00,North,351,2.0,5.0,75,0.00,,,0.15,1.000000,,2013-03-23 13:22:00,
2013-03-23 03:32:00,74.0,66.0,-100.00,North,351,2.0,5.0,75,0.00,,,0.15,1.000000,,2013-03-23 13:32:00,
2013-03-23 04:03:00,74.0,64.0,-100.00,NW,304,3.0,6.0,72,0.00,,,0.15,1.000000,,2013-03-23 14:03:00,
2013-03-23 04:12:00,74.0,64.0,-100.00,NW,304,3.0,6.0,72,0.00,,,0.15,1.000000,,2013-03-23 14:12:00,
2013-03-23 04:22:00,74.0,64.0,-100.00,NW,304,3.0,6.0,72,0.00,,,0.15,1.000000,,2013-03-23 14:22:00,
2013-03-23 04:32:00,74.0,64.0,-100.00,NW,304,3.0,6.0,72,0.00,,,0.15,1.000000,,2013-03-23 14:32:00,
2013-03-23 05:03:00,74.0,63.0,-100.00,NNW,337,1.0,5.0,69,0.00,,,0.15,1.000000,,2013-03-23 15:03:00,
2013-03-23 05:12:00,74.0,63.0,-100.00,NNW,337,1.0,5.0,69,0.00,,,0.15,1.000000,,2013-03-23 15:12:00,
2013-03-23 05:22:00,74.0,63.0,-100.00,NNW,337,1.0,5.0,69,0.00,,,0.15,1.000000,,2013-03-23 15:22:00,
2013-03-23 05:33:00,74.0,63.0,-100.00,NNW,337,1.0,5.0,69,0.00,,,0.15,1.000000,,2013-03-23 15:33:00,
2013-03-23 06:03:00,76.0,64.0,-100.00,NNW,335,1.0,3.0,67,0.00,,,0.15,1.000000,,2013-03-23 16:03:00,
2013-03-23 06:12:00,76.0,64.0,-100.00,NNW,335,1.0,3.0,67,0.00,,,0.15,1.000000,,2013-03-23 16:12:00,
2013-03-23 06:22:00,76.0,64.0,-100.00,NNW,335,1.0,3.0,67,0.00,,,0.15,1.000000,,2013-03-23 16:22:00,
2013-03-23 06:32:00,76.0,64.0,-100.00,NNW,335,1.0,3.0,67,0.00,,,0.15,1.000000,,2013-03-23 16:32:00,
2013-03-23 07:02:00,74.0,62.0,-100.00,North,356,5.0,10.0,67,0.00,,,0.15,1.000000,,2013-03-23 17:02:00,
2013-03-23 07:12:00,74.0,62.0,-100.00,North,356,5.0,10.0,67,0.00,,,0.15,1.000000,,2013-03-23 17:12:00,
2013-03-23 07:22:00,74.0,62.0,-100.00,North,356,5.0,10.0,67,0.00,,,0.15,1.000000,,2013-03-23 17:22:00,
2013-03-23 07:32:00,74.0,62.0,-100.00,North,356,5.0,10.0,67,0.00,,,0.15,1.000000,,2013-03-23 17:32:00,
2013-03-23 08:02:00,73.0,62.0,-100.00,North,7,7.0,13.0,68,0.00,,,0.15,26.000000,,2013-03-23 18:02:00,
2013-03-23 08:12:00,73.0,62.0,-100.00,North,7,7.0,13.0,68,0.00,,,0.15,26.000000,,2013-03-23 18:12:00,
2013-03-23 08:22:00,73.0,62.0,-100.00,North,7,7.0,13.0,68,0.00,,,0.15,26.000000,,2013-03-23 18:22:00,
2013-03-23 08:32:00,73.0,62.0,-100.00,North,7,7.0,13.0,68,0.00,,,0.15,26.000000,,2013-03-23 18:32:00,
2013-03-23 09:02:00,78.0,62.0,-100.00,North,7,6.0,14.0,59,0.00,,,0.15,242.000000,,2013-03-23 19:02:00,
2013-03-23 09:12:00,78.0,62.0,-100.00,North,7,6.0,14.0,59,0.00,,,0.15,242.000000,,2013-03-23 19:12:00,
2013-03-23 09:22:00,78.0,62.0,-100.00,North,7,6.0,14.0,59,0.00,,,0.15,242.000000,,2013-03-23 19:22:00,
2013-03-23 09:32:00,78.0,62.0,-100.00,North,7,6.0,14.0,59,0.00,,,0.15,242.000000,,2013-03-23 19:32:00,
2013-03-23 10:02:00,80.0,67.0,-100.00,North,8,8.0,16.0,64,0.00,,,0.15,314.000000,,2013-03-23 20:02:00,
2013-03-23 10:12:00,80.0,67.0,-100.00,North,8,8.0,16.0,64,0.00,,,0.15,314.000000,,2013-03-23 20:12:00,
2013-03-23 10:22:00,80.0,67.0,-100.00,North,8,8.0,16.0,64,0.00,,,0.15,314.000000,,2013-03-23 20:22:00,
2013-03-23 10:32:00,80.0,67.0,-100.00,North,8,8.0,16.0,64,0.00,,,0.15,314.000000,,2013-03-23 20:32:00,
2013-03-23 11:02:00,76.0,62.0,-100.00,North,7,10.0,20.0,61,0.00,,,0.15,377.000000,,2013-03-23 21:02:00,
2013-03-23 11:12:00,76.0,62.0,-100.00,North,7,10.0,20.0,61,0.00,,,0.15,377.000000,,2013-03-23 21:12:00,
2013-03-23 11:22:00,76.0,62.0,-100.00,North,7,10.0,20.0,61,0.00,,,0.15,377.000000,,2013-03-23 21:22:00,
2013-03-23 11:32:00,76.0,62.0,-100.00,North,7,10.0,20.0,61,0.00,,,0.15,377.000000,,2013-03-23 21:32:00,
2013-03-23 12:02:00,80.0,66.0,-100.00,North,9,10.0,19.0,62,0.00,,,0.15,571.000000,,2013-03-23 22:02:00,
2013-03-23 12:12:00,80.0,66.0,-100.00,North,9,10.0,19.0,62,0.00,,,0.15,571.000000,,2013-03-23 22:12:00,
2013-03-23 12:23:00,80.0,66.0,-100.00,North,9,10.0,19.0,62,0.00,,,0.15,571.000000,,2013-03-23 22:23:00,
2013-03-23 12:32:00,80.0,66.0,-100.00,North,9,10.0,19.0,62,0.00,,,0.15,571.000000,,2013-03-23 22:32:00,
2013-03-23 13:02:00,83.0,64.0,-100.00,North,8,9.0,20.0,52,0.00,,,0.15,852.000000,,2013-03-23 23:02:00,
2013-03-23 13:12:00,83.0,64.0,-100.00,North,8,9.0,20.0,52,0.00,,,0.15,852.000000,,2013-03-23 23:12:00,
2013-03-23 13:22:00,83.0,64.0,-100.00,North,8,9.0,20.0,52,0.00,,,0.15,852.000000,,2013-03-23 23:22:00,
2013-03-23 14:02:00,83.0,61.0,-100.00,NNE,14,7.0,20.0,48,0.00,,,0.13,730.000000,,2013-03-24 00:02:00,
2013-03-23 14:12:00,83.0,61.0,-100.00,NNE,14,7.0,20.0,48,0.00,,,0.13,730.000000,,2013-03-24 00:12:00,
2013-03-23 14:22:00,83.0,61.0,-100.00,NNE,14,7.0,20.0,48,0.00,,,0.13,730.000000,,2013-03-24 00:22:00,
2013-03-23 14:32:00,83.0,61.0,-100.00,NNE,14,7.0,20.0,48,0.00,,,0.13,730.000000,,2013-03-24 00:32:00,
2013-03-23 15:02:00,80.0,63.0,-100.00,North,10,8.0,18.0,56,0.00,,,0.13,519.000000,,2013-03-24 01:02:00,
2013-03-23 15:12:00,80.0,63.0,-100.00,North,10,8.0,18.0,56,0.00,,,0.13,519.000000,,2013-03-24 01:12:00,
2013-03-23 15:22:00,80.0,63.0,-100.00,North,10,8.0,18.0,56,0.00,,,0.13,519.000000,,2013-03-24 01:22:00,
2013-03-23 15:32:00,80.0,63.0,-100.00,North,10,8.0,18.0,56,0.00,,,0.13,519.000000,,2013-03-24 01:32:00,
2013-03-23 16:02:00,79.0,64.0,-100.00,North,9,8.0,17.0,61,0.00,,,0.13,298.000000,,2013-03-24 02:02:00,
2013-03-23 16:12:00,79.0,64.0,-100.00,North,9,8.0,17.0,61,0.00,,,0.13,298.000000,,2013-03-24 02:12:00,
2013-03-23 16:22:00,79.0,64.0,-100.00,North,9,8.0,17.0,61,0.00,,,0.13,298.000000,,2013-03-24 02:22:00,
2013-03-23 16:32:00,79.0,64.0,-100.00,North,9,8.0,17.0,61,0.00,,,0.13,298.000000,,2013-03-24 02:32:00,
2013-03-23 17:02:00,78.0,62.0,-100.00,North,8,9.0,19.0,59,0.00,,,0.13,355.000000,,2013-03-24 03:02:00,
2013-03-23 17:12:00,78.0,62.0,-100.00,North,8,9.0,19.0,59,0.00,,,0.13,355.000000,,2013-03-24 03:12:00,
2013-03-23 17:22:00,78.0,62.0,-100.00,North,8,9.0,19.0,59,0.00,,,0.13,355.000000,,2013-03-24 03:22:00,
2013-03-23 17:32:00,78.0,62.0,-100.00,North,8,9.0,19.0,59,0.00,,,0.13,355.000000,,2013-03-24 03:32:00,
2013-03-23 18:02:00,72.0,60.0,-100.00,North,8,9.0,20.0,66,0.00,,,0.12,121.000000,,2013-03-24 04:02:00,
2013-03-23 18:12:00,72.0,60.0,-100.00,North,8,9.0,20.0,66,0.00,,,0.12,121.000000,,2013-03-24 04:12:00,
2013-03-23 18:22:00,72.0,60.0,-100.00,North,8,9.0,20.0,66,0.00,,,0.12,121.000000,,2013-03-24 04:22:00,
2013-03-23 18:32:00,72.0,60.0,-100.00,North,8,9.0,20.0,66,0.00,,,0.12,121.000000,,2013-03-24 04:32:00,
2013-03-23 19:02:00,74.0,63.0,-100.00,North,8,11.0,20.0,69,0.00,,,0.12,24.000000,,2013-03-24 05:02:00,
2013-03-23 19:12:00,74.0,63.0,-100.00,North,8,11.0,20.0,69,0.00,,,0.12,24.000000,,2013-03-24 05:12:00,
2013-03-23 19:22:00,74.0,63.0,-100.00,North,8,11.0,20.0,69,0.00,,,0.12,24.000000,,2013-03-24 05:22:00,
2013-03-23 19:32:00,74.0,63.0,-100.00,North,8,11.0,20.0,69,0.00,,,0.12,24.000000,,2013-03-24 05:32:00,
2013-03-23 20:02:00,74.0,64.0,-100.00,North,8,10.0,22.0,70,0.00,,,0.12,1.000000,,2013-03-24 06:02:00,
2013-03-23 20:12:00,74.0,64.0,-100.00,North,8,10.0,22.0,70,0.00,,,0.12,1.000000,,2013-03-24 06:12:00,
2013-03-23 20:22:00,74.0,64.0,-100.00,North,8,10.0,22.0,70,0.00,,,0.12,1.000000,,2013-03-24 06:22:00,
2013-03-23 20:32:00,74.0,64.0,-100.00,North,8,10.0,22.0,70,0.00,,,0.12,1.000000,,2013-03-24 06:32:00,
2013-03-23 21:02:00,72.0,62.0,-100.00,North,8,9.0,19.0,70,0.00,,,-99.99,1.000000,,2013-03-24 07:02:00,
2013-03-23 21:12:00,72.0,62.0,-100.00,North,8,9.0,19.0,70,0.00,,,-99.99,1.000000,,2013-03-24 07:12:00,
2013-03-23 21:22:00,72.0,62.0,-100.00,North,8,9.0,19.0,70,0.00,,,-99.99,1.000000,,2013-03-24 07:22:00,
2013-03-23 21:32:00,72.0,62.0,-100.00,North,8,9.0,19.0,70,0.00,,,-99.99,1.000000,,2013-03-24 07:32:00,
2013-03-23 22:02:00,73.0,63.0,-100.00,North,8,10.0,19.0,70,0.00,,,0.12,1.000000,,2013-03-24 08:02:00,
2013-03-23 22:12:00,73.0,63.0,-100.00,North,8,10.0,19.0,70,0.00,,,0.12,1.000000,,2013-03-24 08:12:00,
2013-03-23 22:22:00,73.0,63.0,-100.00,North,8,10.0,19.0,70,0.00,,,0.12,1.000000,,2013-03-24 08:22:00,
2013-03-23 22:32:00,73.0,63.0,-100.00,North,8,10.0,19.0,70,0.00,,,0.12,1.000000,,2013-03-24 08:32:00,
2013-03-23 23:02:00,72.0,62.0,-100.00,North,8,8.0,18.0,71,0.00,,,0.04,1.000000,,2013-03-24 09:02:00,
2013-03-23 23:12:00,72.0,62.0,-100.00,North,8,8.0,18.0,71,0.00,,,0.04,1.000000,,2013-03-24 09:12:00,
2013-03-23 23:22:00,72.0,62.0,-100.00,North,8,8.0,18.0,71,0.00,,,0.04,1.000000,,2013-03-24 09:22:00,
2013-03-23 23:32:00,72.0,62.0,-100.00,North,8,8.0,18.0,71,0.00,,,0.04,1.000000,,2013-03-24 09:32:00,